Погода в Лехове

Россия / Псковская область     55°52′11″N   30°21′51″E
темп.,
°C
ветер,
м/с
пор.,
м/с
влажн.,
%
обл.,
%
осадки,
мм/ч
давл.,
гПа
погр.,
м
20 июня, вс
вс2000:00+17ю22950 0.0 102239
03:00+16ю24960 0.0 102288
06:00+18ю26925 0.0 1021154
09:00+24ююз23670 0.0 1021546
12:00+28ю23490 0.0 10201612
15:00+30ююз33449 0.0 10192154
18:00+29ююв334952 0.0 10181755
21:00+24ю27785 0.1 1018184
21 июня, пн
пн2100:00+20ююв22922 0.0 101843
03:00+18ююв22965 0.0 101929
06:00+19юв239399 0.3 101984
09:00+25юв356524 0.3 1018507
12:00+28юв454891 0.0 10181219
15:00+30вюв343899 0.0 10171374
18:00+29юв35435 0.0 10161374
21:00+22юв277997 0.0 1016157
22 июня, вт
вт2200:00+20юв2118198 0.0 1017231
03:00+18юв299795 0.0 1017185
06:00+19юв39935 0.0 1017280
09:00+25ююв476711 0.0 1017741
12:00+28ююв585219 0.0 10161467
15:00+30ююв58435 0.0 10161848
18:00+29ююв4851100 0.0 10161731
21:00+23ююв287784 0.0 1017175
23 июня, ср
ср2300:00+20ююв38855 0.0 1017139
03:00+19ююв310943 0.0 1018199
06:00+19ююв26903 0.0 1019138
09:00+25ююв35615 0.0 1019527
12:00+30ююв47443 0.0 10191373
15:00+32ю48380 0.0 10192208
18:00+31ю36480 0.0 10182116
21:00+25ююв25790 0.0 101894
24 июня, чт
чт2400:00+22ю25870 0.0 101982
03:00+21ю27912 0.0 1019126
06:00+21ююв27916 0.0 1019205
09:00+27ю35685 0.0 1019580
12:00+31ююз45425 0.0 10181362
15:00+33ююз46352 0.0 10182029
18:00+31ююз47445 0.0 10171668
21:00+25ююз25760 0.0 1016112